Location: Saliers
(43.6630°N, 4.4805°E)
Time: 00:46:50
(UTC+00:00)

Daily predictions for brighter satellites

Satellite Brightness Start Highest point End
(mag) Time Altitude Azimuth Time Altitude Azimuth Time Altitude Azimuth
USA 267 4.4 03:25:40 10° SE 03:29:01 33° SE 03:29:01 33° SE
Cosmos 2278 Rocket 4.2 03:36:40 21° SE 03:36:40 21° SE 03:38:32 10° SE
Cosmos 2237 Rocket 3.6 03:43:06 35° ENE 03:43:06 35° ENE 03:46:39 10° NE
BREEZE-M DEB (TANK) 4.1 03:55:50 67° NNW 03:56:43 73° NNE 04:01:16 10° E
Cosmos 2333 Rocket 4.3 04:04:35 15° N 04:04:35 15° N 04:05:39 10° NNE
Lacrosse 4 Rocket 3.6 04:04:26 25° ENE 04:04:26 25° ENE 04:06:43 10° NE
Cosmos 1464 Rocket 3.9 04:13:47 74° SE 04:14:14 79° E 04:20:25 10° N
Gbstr 26 Del rocket 4.2 04:13:50 77° SW 04:14:29 88° SE 04:22:37 10° ENE
Cosmos 1980 4.2 04:17:07 49° NNE 04:17:07 49° NNE 04:21:13 10° NNE
COSMOS 2428 4.5 04:25:09 19° N 04:25:09 19° N 04:27:02 10° N
Cosmos 1072 Rocket 4.3 04:22:08 82° NW 04:22:08 82° NW 04:28:19 10° N
FALCON 9 R/B 4.0 04:24:54 16° S 04:24:54 16° S 04:26:15 10° SSE
Atlas Centaur 2 3.9 04:26:51 27° SSW 04:27:56 28° S 04:34:28 10° SE
ATLAS CENTAUR R/B 3.2 04:31:45 23° NE 04:31:45 23° NE 04:33:16 10° NE
METEOR-M 4.0 04:29:04 10° NNE 04:34:27 86° WNW 04:34:34 84° WSW
Lacrosse 5 rocket 3.5 04:40:11 15° SSE 04:40:11 15° SSE 04:40:57 10° SSE
Cosmos 2084 Rocket 4.1 04:37:18 51° NE 04:37:28 51° NE 04:41:52 10° SE
Cosmos 1340 4.0 04:42:00 34° SE 04:42:00 34° SE 04:44:17 10° SSE
Cosmos 372 Rocket 3.8 04:40:33 78° NW 04:40:53 86° WSW 04:46:06 10° SSE
ALOS 4.5 04:37:12 10° N 04:37:53 14° N 04:37:53 14° N
USA 215 4.1 04:36:41 10° NE 04:42:22 33° NNW 04:43:15 32° NNW
Cosmos 1602 Rocket 4.2 04:40:25 20° N 04:43:20 56° E 04:47:43 10° SSE
USA 307 3.2 04:44:42 61° NE 04:44:42 61° NE 04:48:14 10° NE
ADEOS 3.4 04:39:35 10° NNE 04:44:50 85° WNW 04:47:41 28° SSW
NOSS 0 Rocket 4.3 04:45:40 45° NW 04:45:40 45° NW 04:50:58 10° NNE
Nadezhda 4 Rocket 3.8 04:43:27 10° N 04:49:35 81° W 04:55:42 10° S
USA 305 3.0 04:50:49 65° NNE 04:50:49 65° NNE 04:54:32 10° NE
USA 308 2.9 04:53:18 72° N 04:53:18 72° N 04:57:16 10° NE
Cosmos 1400 Rocket 2.8 04:53:19 86° E 04:53:19 86° E 04:57:27 10° N
SL-4 R/B 2.5 04:55:30 46° NNE 04:55:30 46° NNE 04:58:38 10° NE
FALCON 9 DEB 4.4 04:55:02 34° SE 04:55:02 34° SE 04:57:41 10° ENE
Cosmos 2034 Rocket 3.9 04:49:28 10° SSW 04:55:50 72° W 05:02:12 10° N
Cosmos 1943 Rocket 3.3 04:51:10 10° NNW 04:56:31 42° ENE 05:01:51 10° SE
Meteor 1-16 Rocket 4.2 04:50:53 10° SSW 04:56:49 79° W 05:02:46 10° N
Cosmos 1570 Rocket 4.1 04:57:36 52° NW 04:57:36 52° NW 05:02:29 10° NNE
CZ-4B R/B 3.6 04:56:30 10° S 04:57:25 17° S 04:57:25 17° S
Cosmos 540 Rocket 4.4 05:01:39 31° NNW 05:01:39 31° NNW 05:04:57 10° N
USA 306 2.8 05:02:36 64° NNW 05:02:36 64° NNW 05:06:47 10° NE
SJ-12 3.8 04:58:55 10° N 05:03:04 75° WNW 05:04:12 46° SSW
NOSS 3-2 (A) 3.2 05:00:28 25° SW 05:03:58 89° NW 05:10:25 10° NE
Cosmos 1814 Rocket 4.0 05:03:50 50° WNW 05:04:00 51° WNW 05:09:01 10° N
Cosmos 2298 Rocket 4.0 05:00:29 19° NNW 05:04:21 84° ENE 05:09:41 10° SSE
Cosmos 1634 Rocket 4.4 05:00:06 10° S 05:06:09 65° E 05:12:18 10° NNE
Cosmos 2369 Rocket 3.8 05:01:50 10° N 05:06:47 31° NE 05:11:41 10° ESE
Cosmos 1125 Rocket 4.0 05:01:52 10° NNW 05:07:06 61° ENE 05:12:21 10° SSE
Envisat 4.1 05:02:24 10° NNE 05:07:17 45° E 05:12:06 10° S
COSMO-SKYMED 1 2.5 05:06:29 10° S 05:10:47 65° W 05:12:33 34° NNW
CZ-4B R/B 2.6 05:08:27 10° NNE 05:12:07 88° E 05:15:56 10° SSW
PSLV R/B 4.2 05:08:48 10° SSE 05:12:53 70° ENE 05:17:03 10° N
CZ-4B R/B 4.4 05:09:41 10° N 05:13:34 44° NW 05:13:34 44° NW
USA 267 4.2 05:10:36 10° S 05:15:46 25° SW 05:16:23 24° WSW
Cosmos 2228 3.9 05:12:21 10° SSE 05:16:26 50° E 05:20:33 10° NNE
Cosmos 2278 Rocket 3.6 05:18:35 20° SW 05:18:35 20° SW 05:21:10 10° SSW
SL-16 R/B 2.1 05:11:25 10° SSW 05:17:04 83° WNW 05:22:47 10° NNE
NOSS 3-2 (C) 3.6 05:12:06 10° SSW 05:17:37 70° ESE 05:23:56 10° NE
CZ-2C R/B 3.0 05:19:17 20° SSW 05:20:22 21° SSW 05:23:34 10° SE
ERBS 3.8 05:18:11 13° SSW 05:20:43 35° SE 05:23:44 10° ENE
Cosmos 972 Rocket 4.2 05:15:10 10° SSW 05:21:31 77° WNW 05:27:10 10° NNE
Cosmos 2219 Rocket 4.2 05:23:37 11° NNW 05:23:37 11° NNW 05:24:27 10° NNW
ERS-2 2.0 05:19:53 10° S 05:23:30 66° WSW 05:25:10 30° NNW
CENTAUR R/B 2.5 05:19:02 10° SSW 05:24:49 83° SE 05:31:47 10° NE
Cosmos 2026 Rocket 4.0 05:18:56 10° N 05:25:21 90° ENE 05:31:44 10° S
Cosmos 2237 Rocket 3.0 05:24:59 28° WNW 05:25:29 29° NW 05:30:24 10° N
ATLAS 5 CENTAUR R/B 2.8 05:25:46 26° SW 05:25:47 26° SW 05:30:20 10° SSE
H-2A R/B 2.5 05:25:24 10° N 05:29:07 75° WNW 05:32:52 10° SSW
FALCON 9 DEB 2.9 05:30:00 38° SW 05:31:04 81° SE 05:34:12 10° ENE
Cosmos 1606 Rocket 3.8 05:28:35 10° S 05:32:51 69° E 05:37:10 10° NNE
Meteor PRIRODA 3.7 05:30:14 10° N 05:33:46 51° WNW 05:37:17 10° SSW
Cosmos 1626 Rocket 4.4 05:37:41 27° W 05:38:04 28° W 05:41:51 10° SSW
Cosmos 1703 4.3 05:39:02 26° WSW 05:39:02 26° WSW 05:41:48 10° SSW
FALCON 9 DEB 2.7 05:38:25 35° WSW 05:39:34 74° NNW 05:42:40 10° NE
Lacrosse 4 Rocket 2.4 05:40:48 26° WNW 05:41:31 27° NW 05:45:17 10° N
Cosmos 1300 2.6 05:41:02 10° SSW 05:44:48 61° W 05:48:35 10° N
Meteor 1-11 4.2 05:40:37 10° NNW 05:46:06 59° W 05:51:34 10° S
SAR-Lupe-4 3.9 05:43:43 10° S 05:47:08 43° W 05:50:19 12° NNW
Cosmos 1315 Rocket 2.7 05:45:30 10° SSW 05:49:21 65° WNW 05:53:16 10° N
Cosmos 2142 Rocket 4.5 05:43:59 10° S 05:50:18 83° W 05:56:35 10° N
[s.n.47389] 3.2 05:48:24 13° SW 05:50:35 50° SE 05:53:06 10° ENE
[s.n.47399] 3.2 05:48:25 13° SW 05:50:37 50° SE 05:53:08 10° ENE
[s.n.47393] 3.2 05:48:27 13° SW 05:50:39 50° SE 05:53:11 10° ENE
[s.n.47353] 3.2 05:48:32 13° SW 05:50:43 50° SE 05:53:15 10° ENE
[s.n.47355] 3.2 05:48:34 12° SW 05:50:47 51° SE 05:53:19 10° ENE
[s.n.47365] 3.2 05:48:37 12° SW 05:50:49 51° SE 05:53:22 10° ENE
[s.n.47383] 3.2 05:48:42 12° SW 05:50:55 51° SE 05:53:26 10° ENE
[s.n.47400] 3.2 05:48:40 12° SW 05:50:56 51° SE 05:53:31 10° ENE
[s.n.47378] 3.2 05:48:48 12° SW 05:51:00 51° SE 05:53:33 10° ENE
[s.n.47395] 3.2 05:48:50 12° SW 05:51:03 51° SE 05:53:35 10° ENE
[s.n.47379] 3.2 05:48:57 12° SW 05:51:09 51° SE 05:53:41 10° ENE
[s.n.47370] 3.2 05:48:57 12° SW 05:51:10 51° SE 05:53:42 10° ENE
[s.n.47351] 3.2 05:48:56 12° SW 05:51:13 52° SE 05:53:48 10° ENE
[s.n.47394] 3.1 05:49:03 12° SW 05:51:16 51° SE 05:53:49 10° ENE
[s.n.47354] 3.1 05:49:07 12° SW 05:51:20 51° SE 05:53:52 10° ENE
[s.n.47360] 3.1 05:49:09 12° SW 05:51:22 51° SE 05:53:54 10° ENE
deb Chang Zheng 4 4.2 05:47:41 10° N 05:51:26 31° WNW 05:55:09 10° SW
[s.n.47369] 3.1 05:49:13 12° SW 05:51:27 51° SE 05:53:59 10° ENE
[s.n.47406] 3.1 05:49:15 12° SW 05:51:29 52° SE 05:54:01 10° ENE
[s.n.47384] 3.1 05:49:18 12° SW 05:51:32 52° SE 05:54:04 10° ENE
[s.n.47356] 3.1 05:49:21 12° SW 05:51:35 52° SE 05:54:07 10° ENE
[s.n.47407] 3.1 05:49:25 12° SW 05:51:39 52° SE 05:54:11 10° ENE
[s.n.47385] 3.1 05:49:22 12° SW 05:51:41 52° SE 05:54:16 10° ENE
[s.n.47358] 3.1 05:49:32 12° SW 05:51:45 52° SE 05:54:18 10° ENE
[s.n.47398] 3.1 05:49:33 12° SW 05:51:47 52° SE 05:54:20 10° ENE
[s.n.47361] 3.1 05:49:37 12° SW 05:51:52 52° SE 05:54:25 10° ENE
[s.n.47392] 3.1 05:49:39 12° SW 05:51:54 52° SE 05:54:27 10° ENE
[s.n.47382] 3.1 05:49:43 12° SW 05:51:58 52° SE 05:54:31 10° ENE
[s.n.47359] 3.1 05:49:43 12° SW 05:52:00 53° SE 05:54:34 10° ENE
[s.n.47401] 3.1 05:49:51 12° SW 05:52:05 52° SE 05:54:38 10° ENE
[s.n.47380] 3.1 05:49:47 12° SW 05:52:06 53° SE 05:54:42 10° ENE
[s.n.47386] 3.1 05:49:57 12° SW 05:52:12 53° SE 05:54:45 10° ENE
[s.n.47408] 3.1 05:49:55 12° SW 05:52:14 53° SE 05:54:49 10° ENE
[s.n.47396] 3.1 05:50:02 12° SW 05:52:18 53° SE 05:54:50 10° ENE
[s.n.47391] 3.1 05:50:04 12° SW 05:52:20 53° SE 05:54:53 10° ENE
[s.n.47402] 3.1 05:50:08 12° SW 05:52:24 53° SE 05:54:56 10° ENE
[s.n.47404] 3.1 05:50:11 12° SW 05:52:27 53° SE 05:55:00 10° ENE
[s.n.47403] 3.1 05:50:14 12° SW 05:52:30 53° SE 05:55:03 10° ENE
[s.n.47381] 3.1 05:50:17 12° SW 05:52:34 53° SE 05:55:07 10° ENE
[s.n.47372] 3.1 05:50:21 12° SW 05:52:38 53° SE 05:55:11 10° ENE
[s.n.47405] 3.1 05:50:23 12° SW 05:52:40 53° SE 05:55:13 10° ENE
[s.n.47368] 3.1 05:50:28 12° SW 05:52:45 54° SE 05:55:17 10° ENE
[s.n.47350] 3.1 05:50:30 12° SW 05:52:47 54° SE 05:55:20 10° ENE
[s.n.47349] 3.1 05:50:28 12° SW 05:52:49 54° SE 05:55:24 10° ENE
[s.n.47367] 3.1 05:50:34 12° SW 05:52:52 54° SE 05:55:26 10° ENE
[s.n.47373] 3.1 05:50:34 12° SW 05:52:56 54° SE 05:55:31 10° ENE
[s.n.47377] 3.1 05:50:38 12° SW 05:52:59 54° SE 05:55:35 10° ENE
[s.n.47371] 3.1 05:50:40 12° SW 05:53:01 55° SE 05:55:37 10° ENE
[s.n.47362] 3.1 05:50:43 12° SW 05:53:04 55° SE 05:55:40 10° ENE
[s.n.47363] 3.1 05:50:46 12° SW 05:53:08 55° SE 05:55:44 10° ENE
[s.n.47374] 3.0 05:50:52 12° SW 05:53:12 55° SE 05:55:46 10° ENE
[s.n.47357] 3.0 05:50:57 12° SW 05:53:16 55° SE 05:55:49 10° ENE
[s.n.47390] 3.0 05:51:01 12° SW 05:53:19 54° SE 05:55:52 10° ENE
[s.n.47387] 3.0 05:51:03 12° SW 05:53:22 55° SE 05:55:55 10° ENE
[s.n.47375] 3.0 05:51:04 12° SW 05:53:23 55° SE 05:55:56 10° ENE
[s.n.47376] 3.1 05:51:02 12° SW 05:53:25 55° SE 05:56:00 10° ENE
[s.n.47366] 3.0 05:51:13 12° SW 05:53:32 55° SE 05:56:06 10° ENE
[s.n.47352] 3.0 05:51:15 12° SW 05:53:35 55° SE 05:56:09 10° ENE
[s.n.47364] 3.0 05:51:18 12° SW 05:53:39 55° SE 05:56:14 10° ENE
[s.n.47388] 3.0 05:51:21 12° SW 05:53:42 55° SE 05:56:17 10° ENE
[s.n.47397] 3.0 05:51:28 12° SW 05:53:47 55° SE 05:56:21 10° ENE
Cosmos 2297 4.0 05:50:18 10° NW 05:55:46 45° WSW 06:01:11 10° S
MOS 1 Rocket 4.0 05:52:09 10° SSW 05:56:29 32° W 06:00:37 10° NNW
ATLAS 3B R/B 4.4 05:52:15 10° S 05:58:03 35° ESE 06:03:56 10° NE
Cosmos 1346 Rocket 3.3 05:55:22 10° NNW 05:59:05 38° W 06:02:47 10° SSW
USA 238 DEB 3.8 05:53:26 10° WSW 05:59:50 52° NW 06:06:34 10° NNE
USA 238 3.8 05:53:32 10° WSW 05:59:56 52° NW 06:06:41 10° NNE
Cosmos 1758 Rocket 4.1 05:59:51 10° NNW 06:03:58 36° W 06:08:00 10° SSW
NOAA 12 4.4 06:00:02 10° NNE 06:05:21 76° ESE 06:10:40 10° S
Cosmos 1689 Rocket 3.3 06:03:34 10° SSW 06:05:54 22° W 06:07:23 15° NW
ATLAS CENTAUR R/B 2.8 06:07:56 14° WNW 06:08:52 15° NW 06:11:02 10° N
Cosmos 1441 Rocket 4.2 06:06:48 10° N 06:10:40 51° ENE 06:14:27 10° SSE
TIMED 4.5 06:06:21 10° SSW 06:10:42 86° WNW 06:15:07 10° NNE
BREEZE M DEB (TANK) 1.9 06:11:50 12° WSW 06:13:54 65° NNW 06:18:40 10° ENE
SL-19 R/B 3.8 06:11:50 10° N 06:15:28 70° WNW 06:18:38 10° SSW
Cosmos 1726 Rocket 3.7 06:12:59 10° SSW 06:17:09 49° WNW 06:21:21 10° N
MOS 1-B 4.3 06:12:44 10° NNE 06:18:32 76° WNW 06:24:16 10° SSW
Cosmos 2058 Rocket 3.0 06:14:43 10° SSW 06:19:07 78° W 06:23:35 10° N
YAOGAN 6 3.5 06:16:06 10° NNW 06:19:17 27° WNW 06:22:27 10° SW
Cosmos 1892 2.6 06:15:44 10° N 06:19:36 78° W 06:23:26 10° S
Cosmos 1184 Rocket 4.3 06:16:57 10° N 06:20:03 38° ENE 06:23:06 10° SSE
Spot 2 4.0 06:16:10 10° N 06:20:08 57° WNW 06:24:11 10° SSW
Cosmos 1603 3.8 06:14:39 10° SSW 06:20:15 86° ESE 06:25:57 10° NNE
GEOS 3 Rocket 3.9 06:16:01 10° SSE 06:21:16 57° WSW 06:26:35 10° NW
FALCON 9 DEB 3.7 06:19:09 10° W 06:21:56 32° NNW 06:24:47 10° NE
USA 215 4.5 06:18:54 10° ENE 06:24:13 28° N 06:29:33 10° NW
USA 307 4.1 06:20:53 10° WNW 06:24:27 26° NNW 06:28:04 10° NE
Cosmos 2279 Rocket 4.2 06:23:11 10° SSW 06:29:11 48° WNW 06:35:15 10° N
CZ-4B DEB 4.4 06:24:07 10° N 06:29:30 51° WNW 06:34:50 10° SW
In-Cosmos 22 Rocket 4.2 06:24:42 10° NNW 06:30:02 58° W 06:35:15 10° S
FALCON 9 DEB 3.8 06:27:50 10° W 06:30:43 32° NNW 06:33:35 10° NE
USA 305 4.2 06:27:15 10° WNW 06:30:48 25° NNW 06:34:20 10° NE
Cosmos 2292 Rocket 3.4 06:28:46 10° NNW 06:31:40 38° W 06:35:02 10° SSW
Cosmos 1408 2.5 06:29:42 10° NNW 06:33:19 74° W 06:36:55 10° S
USA 308 4.2 06:29:57 10° WNW 06:33:32 25° NNW 06:37:07 10° NE
SL-4 R/B 3.2 06:31:32 10° WNW 06:34:54 27° N 06:38:29 10° NE
Cosmos 2098 Rocket 4.4 06:31:09 10° NNW 06:35:26 24° W 06:39:03 10° SW
Okean O Rocket 1.5 06:31:10 10° N 06:35:31 72° WNW 06:39:50 10° SSW
